Tiempo cada hora Al Khiyam

Hoy, 30 Julio, Viernes

Tiempo Temperatura Precipitaciones Viento Presión Humedad
00:00 +24°C° 0 mm 1 mps 706 mmHg 71%
01:00 +24°C° 0 mm 1 mps 706 mmHg 71%
02:00 +23°C° 0 mm 1 mps 706 mmHg 71%
03:00 +23°C° 0 mm 1 mps 705 mmHg 70%
04:00 +23°C° 0 mm 1 mps 705 mmHg 69%
05:00 +22°C° 0 mm 1 mps 705 mmHg 68%
06:00 +24°C° 0 mm 1 mps 706 mmHg 59%
07:00 +27°C° 0 mm 2 mps 706 mmHg 51%
08:00 +29°C° 0 mm 2 mps 706 mmHg 42%
09:00 +30°C° 0 mm 3 mps 706 mmHg 38%
10:00 +33°C° 0 mm 4 mps 706 mmHg 35%
11:00 +34°C° 0 mm 4 mps 707 mmHg 31%
12:00 +34°C° 0 mm 5 mps 706 mmHg 32%
13:00 +34°C° 0 mm 5 mps 706 mmHg 34%
14:00 +34°C° 0 mm 5 mps 706 mmHg 35%
15:00 +34°C° 0 mm 5 mps 706 mmHg 36%
16:00 +33°C° 0 mm 5 mps 705 mmHg 38%
17:00 +32°C° 0 mm 4 mps 705 mmHg 39%
18:00 +29°C° 0 mm 3 mps 705 mmHg 47%
19:00 +28°C° 0 mm 2 mps 705 mmHg 55%
20:00 +26°C° 0 mm 1 mps 706 mmHg 63%
21:00 +26°C° 0 mm 1 mps 706 mmHg 64%
22:00 +25°C° 0 mm 1 mps 705 mmHg 64%
23:00 +25°C° 0 mm 1 mps 705 mmHg 65%

Mañana, 31 Julio, Sábado

Tiempo Temperatura Precipitaciones Viento Presión Humedad
00:00 +24°C° 0 mm 1 mps 705 mmHg 64%
01:00 +24°C° 0 mm 1 mps 705 mmHg 64%
02:00 +24°C° 0 mm 1 mps 705 mmHg 64%
03:00 +24°C° 0 mm 1 mps 705 mmHg 63%
04:00 +23°C° 0 mm 1 mps 705 mmHg 62%
05:00 +23°C° 0 mm 1 mps 705 mmHg 61%
06:00 +25°C° 0 mm 1 mps 705 mmHg 53%
07:00 +28°C° 0 mm 2 mps 705 mmHg 45%
08:00 +30°C° 0 mm 2 mps 706 mmHg 37%
09:00 +31°C° 0 mm 3 mps 706 mmHg 35%
10:00 +33°C° 0 mm 4 mps 706 mmHg 32%
11:00 +35°C° 0 mm 5 mps 706 mmHg 30%
12:00 +35°C° 0 mm 5 mps 706 mmHg 32%
13:00 +35°C° 0 mm 5 mps 706 mmHg 33%
14:00 +34°C° 0 mm 6 mps 706 mmHg 35%
15:00 +34°C° 0 mm 5 mps 706 mmHg 36%
16:00 +33°C° 0 mm 4 mps 706 mmHg 38%
17:00 +32°C° 0 mm 4 mps 706 mmHg 40%
18:00 +29°C° 0 mm 3 mps 706 mmHg 46%
19:00 +28°C° 0 mm 2 mps 706 mmHg 53%
20:00 +26°C° 0 mm 1 mps 706 mmHg 59%
21:00 +26°C° 0 mm 1 mps 706 mmHg 56%
22:00 +26°C° 0 mm 1 mps 706 mmHg 54%
23:00 +26°C° 0 mm 1 mps 706 mmHg 51%

Pasado mañana, 1 Agosto, Domingo

Tiempo Temperatura Precipitaciones Viento Presión Humedad
00:00 +25°C° 0 mm 1 mps 706 mmHg 51%
01:00 +25°C° 0 mm 1 mps 705 mmHg 50%
02:00 +24°C° 0 mm 1 mps 705 mmHg 50%
03:00 +24°C° 0 mm 1 mps 705 mmHg 49%
04:00 +24°C° 0 mm 1 mps 705 mmHg 49%
05:00 +24°C° 0 mm 1 mps 705 mmHg 49%
06:00 +26°C° 0 mm 1 mps 706 mmHg 44%
07:00 +28°C° 0 mm 1 mps 706 mmHg 39%
08:00 +30°C° 0 mm 2 mps 707 mmHg 34%
09:00 +33°C° 0 mm 3 mps 707 mmHg 33%
10:00 +34°C° 0 mm 3 mps 707 mmHg 32%
11:00 +35°C° 0 mm 4 mps 707 mmHg 30%
12:00 +35°C° 0 mm 5 mps 707 mmHg 32%
13:00 +35°C° 0 mm 5 mps 706 mmHg 33%
14:00 +35°C° 0 mm 5 mps 706 mmHg 34%
15:00 +34°C° 0 mm 5 mps 706 mmHg 36%
16:00 +34°C° 0 mm 4 mps 706 mmHg 38%
17:00 +33°C° 0 mm 4 mps 706 mmHg 40%
18:00 +30°C° 0 mm 3 mps 706 mmHg 46%
19:00 +29°C° 0 mm 2 mps 706 mmHg 52%
20:00 +27°C° 0 mm 1 mps 706 mmHg 59%
21:00 +27°C° 0 mm 1 mps 706 mmHg 57%
22:00 +27°C° 0 mm 1 mps 706 mmHg 55%
23:00 +26°C° 0 mm 1 mps 706 mmHg 54%

2 Agosto, Lunes

Tiempo Temperatura Precipitaciones Viento Presión Humedad
00:00 +26°C° 0 mm 1 mps 706 mmHg 53%
01:00 +26°C° 0 mm 1 mps 705 mmHg 52%
02:00 +25°C° 0 mm 1 mps 705 mmHg 51%
03:00 +25°C° 0 mm 1 mps 705 mmHg 51%
04:00 +25°C° 0 mm 1 mps 705 mmHg 50%
05:00 +25°C° 0 mm 1 mps 705 mmHg 50%
06:00 +27°C° 0 mm 1 mps 706 mmHg 45%
07:00 +29°C° 0 mm 2 mps 706 mmHg 40%
08:00 +31°C° 0 mm 2 mps 707 mmHg 34%
09:00 +34°C° 0 mm 3 mps 707 mmHg 33%
10:00 +35°C° 0 mm 4 mps 707 mmHg 31%
11:00 +36°C° 0 mm 4 mps 707 mmHg 30%
12:00 +36°C° 0 mm 5 mps 707 mmHg 31%
13:00 +36°C° 0 mm 5 mps 707 mmHg 32%
14:00 +36°C° 0 mm 5 mps 706 mmHg 33%
15:00 +35°C° 0 mm 5 mps 706 mmHg 34%
16:00 +35°C° 0 mm 4 mps 706 mmHg 36%
17:00 +34°C° 0 mm 3 mps 706 mmHg 37%
18:00 +31°C° 0 mm 3 mps 706 mmHg 43%
19:00 +29°C° 0 mm 2 mps 706 mmHg 50%
20:00 +28°C° 0 mm 1 mps 707 mmHg 56%
21:00 +28°C° 0 mm 1 mps 707 mmHg 52%
22:00 +28°C° 0 mm 1 mps 707 mmHg 49%
23:00 +27°C° 0 mm 1 mps 707 mmHg 45%

3 Agosto, Martes

Tiempo Temperatura Precipitaciones Viento Presión Humedad
00:00 +27°C° 0 mm 1 mps 707 mmHg 43%
01:00 +27°C° 0 mm 1 mps 706 mmHg 41%
02:00 +27°C° 0 mm 1 mps 706 mmHg 39%
03:00 +26°C° 0 mm 1 mps 706 mmHg 39%
04:00 +26°C° 0 mm 1 mps 706 mmHg 39%
05:00 +26°C° 0 mm 1 mps 707 mmHg 38%
06:00 +28°C° 0 mm 1 mps 707 mmHg 34%
07:00 +31°C° 0 mm 2 mps 708 mmHg 30%
08:00 +34°C° 0 mm 2 mps 708 mmHg 26%
09:00 +35°C° 0 mm 3 mps 708 mmHg 26%
10:00 +36°C° 0 mm 3 mps 708 mmHg 26%
11:00 +37°C° 0 mm 4 mps 708 mmHg 25%
12:00 +37°C° 0 mm 4 mps 708 mmHg 26%
13:00 +37°C° 0 mm 4 mps 708 mmHg 26%
14:00 +37°C° 0 mm 5 mps 708 mmHg 26%
15:00 +36°C° 0 mm 4 mps 708 mmHg 27%
16:00 +36°C° 0 mm 4 mps 707 mmHg 29%
17:00 +35°C° 0 mm 3 mps 707 mmHg 30%
18:00 +33°C° 0 mm 3 mps 708 mmHg 35%
19:00 +30°C° 0 mm 2 mps 708 mmHg 40%
20:00 +29°C° 0 mm 1 mps 708 mmHg 45%
21:00 +29°C° 0 mm 1 mps 708 mmHg 43%
22:00 +28°C° 0 mm 1 mps 708 mmHg 40%
23:00 +28°C° 0 mm 1 mps 708 mmHg 38%

4 Agosto, Miércoles

Tiempo Temperatura Precipitaciones Viento Presión Humedad
00:00 +28°C° 0 mm 1 mps 708 mmHg 37%
01:00 +28°C° 0 mm 1 mps 708 mmHg 36%
02:00 +28°C° 0 mm 1 mps 708 mmHg 35%
03:00 +28°C° 0 mm 1 mps 708 mmHg 34%
04:00 +28°C° 0 mm 1 mps 708 mmHg 34%
05:00 +28°C° 0 mm 1 mps 708 mmHg 33%
06:00 +30°C° 0 mm 1 mps 709 mmHg 30%
07:00 +32°C° 0 mm 1 mps 709 mmHg 27%
08:00 +35°C° 0 mm 2 mps 710 mmHg 24%
09:00 +36°C° 0 mm 3 mps 710 mmHg 23%
10:00 +37°C° 0 mm 3 mps 710 mmHg 22%
11:00 +38°C° 0 mm 4 mps 710 mmHg 22%
12:00 +38°C° 0 mm 4 mps 710 mmHg 23%
13:00 +39°C° 0 mm 5 mps 710 mmHg 23%
14:00 +39°C° 0 mm 5 mps 710 mmHg 24%
15:00 +37°C° 0 mm 4 mps 710 mmHg 24%
16:00 +36°C° 0 mm 4 mps 710 mmHg 25%
17:00 +36°C° 0 mm 3 mps 710 mmHg 26%
18:00 +34°C° 0 mm 2 mps 710 mmHg 29%
19:00 +31°C° 0 mm 2 mps 710 mmHg 33%
20:00 +30°C° 0 mm 1 mps 710 mmHg 36%
21:00 +29°C° 0 mm 1 mps 710 mmHg 35%
22:00 +29°C° 0 mm 1 mps 709 mmHg 33%
23:00 +29°C° 0 mm 1 mps 709 mmHg 31%
Mostrar más

Necesitamos Su Consentimiento

Meteoprog y nuestros Proveedores de Servicios pueden almacenar y acceder a sus datos personales como cookies, identificadores de dispositivo u otras tecnologías similares de su dispositivo y procesar dichos datos para personalizar contenido y anuncios, además de ofrecer funciones de redes sociales y analizar el tráfico.

  • Almacenar y/o acceder a información en su dispositivo

    Se puede almacenar o acceder a cookies, identificadores de dispositivo u otra información de su dispositivo para los fines anteriormente indicados.

  • Anuncios y contenido personalizados, medición de anuncios y contenido, percepciones del público, y desarrollo de productos

    Los anuncios y el contenido pueden personalizarse en base a su perfil. Se pueden añadir más datos para personalizar mejor los anuncios y contenidos. Se puede medir el rendimiento de los anuncios y contenidos. Se puede obtener la percepción sobre el público que ha visto los anuncios y contenidos. Dichos datos pueden usarse para desarrollar o mejorar la experiencia del usuario, sistemas y software.

Al hacer clic en ‘Estoy De Acuerdo’ usted permitirá el uso de las cookies, identificadores de dispositivo, balizas web u otras tecnologías similares indicadas. Su configuración puede cambiarse desde el navegador de su dispositivo.

Para ciertos fines, los intereses legítimos pueden ser considerados por encima del consentimiento. Puede leer más sobre ello en nuestra Política de Privacidad y Cookies.